Location: Gand�
(15.0971°N, 12.6564°W)
Time: 15:22:20
(UTC+00:00)

Cosmos 2228 - Pass Details

Date: 07 August 2020
Orbit: 588 x 619 km, 82.5° (Epoch: 20 September)

Event Time Altitude Azimuth Distance (km) Brightness Sun altitude
Exits shadow 05:06:13 36° 304° (NW) 964 3.7 -20.8°
Drops below altitude 10° 05:09:28 10° 346° (NNW) 1,961 5.7 -20.1°
Sets 05:11:48 0° 354° (N) 2,871 6.7 -19.6°
